Theta_e
335 338 337 337 338 343 345 345 346 345 344 344 341 345 345 346 347 346 345 344 346 344 341 341 340 339 339 340 338 339 338 336 334
333 333 335 333 333 337 339 342 345 344 345 345 341 344 344 344 344 343 342 343 344 346 343 340 340 340 339 341 339 339 338 337 334
331 331 332 331 330 329 332 331 331 345 347 344 342 343 345 341 342 341 340 340 343 343 341 341 339 340 340 341 339 336 338 336 334
327 329 329 327 322 319 322 320 320 333 341 342 342 343 342 340 339 338 339 342 342 341 341 340 342 341 340 340 340 338 337 336 333
325 325 323 318 314 314 317 318 318 321 331 339 341 339 340 338 336 334 336 338 338 341 343 341 341 342 341 341 342 341 338 338 336
325 324 313 309 308 310 312 314 315 318 318 329 337 332 336 335 333 333 332 334 335 338 339 339 340 342 343 341 342 340 337 334 337
322 309 307 305 305 305 306 310 313 315 317 317 320 324 329 329 328 327 328 330 332 334 335 336 336 337 339 340 342 342 340 335 336
317 310 311 309 310 310 309 310 310 311 311 313 313 317 320 323 324 322 323 324 327 328 328 329 332 333 334 336 339 340 342 338 336
317 313 312 310 310 309 309 309 308 307 308 308 308 310 312 314 316 316 312 318 321 323 323 325 326 329 332 332 332 336 338 341 339
313 312 311 310 309 309 309 308 308 307 307 306 307 307 307 308 309 310 307 302 307 316 318 319 320 322 323 326 328 329 333 337 339
313 312 311 310 309 309 309 308 308 307 307 306 306 307 306 307 306 307 307 306 304 303 308 312 314 316 317 318 319 321 324 328 334
313 312 311 311 310 309 308 307 307 307 307 307 306 306 306 306 305 306 306 306 306 305 304 301 308 312 313 313 313 313 314 317 321
313 312 312 311 310 308 308 307 307 307 307 307 307 306 306 306 305 305 305 306 306 306 305 303 301 304 309 311 312 312 313 314 314
313 312 312 311 310 308 308 308 308 308 308 307 307 306 306 306 306 305 305 305 304 304 304 305 305 305 305 309 310 312 313 314 314
313 312 311 311 310 309 308 308 307 307 308 307 306 305 306 306 306 305 305 305 305 304 304 304 304 306 306 306 308 310 311 312 313
312 312 311 311 309 309 308 307 308 307 306 306 306 307 307 306 305 306 305 305 305 304 304 304 304 303 304 305 306 307 307 309 311
312 312 311 311 309 309 309 307 307 307 307 305 307 304 307 306 305 305 305 304 304 304 304 304 304 303 303 303 304 303 304 308 309
312 312 311 311 309 309 309 308 307 307 306 305 305 304 303 305 306 305 305 304 304 304 304 304 303 303 303 303 303 304 305 306 307
312 311 311 310 309 309 308 308 307 308 307 305 304 304 304 301 301 305 305 305 304 303 303 303 303 302 303 303 303 303 304 305 306
312 311 311 310 309 309 309 308 307 307 307 306 305 303 304 304 302 301 304 305 304 303 302 302 302 303 303 303 303 303 304 305 305
Wind_Speed
11 10 10 11 10 10 10 9 9 8 8 7 10 11 13 13 13 14 11 13 10 8 5 5 4 4 5 5 7 6 5 5 5
10 10 9 10 11 11 10 9 9 9 7 7 9 11 10 9 10 11 9 10 9 7 5 3 2 2 3 3 4 5 5 4 4
9 9 9 9 9 9 9 7 7 9 10 5 7 8 10 3 7 6 7 7 7 6 5 3 2 1 1 1 2 4 3 3 3
7 8 7 7 7 6 7 7 7 7 6 6 7 8 9 4 2 3 7 10 7 5 3 3 3 1 1 1 1 2 2 3 2
8 7 6 6 5 5 6 7 8 8 6 5 7 8 7 3 2 3 6 4 4 10 9 5 3 4 1 1 4 2 1 2 2
7 6 5 6 6 5 5 7 8 9 9 6 8 6 5 3 2 4 5 5 4 9 7 7 7 9 9 1 5 4 2 1 3
6 4 5 7 9 9 8 8 7 5 4 4 6 5 5 4 1 2 4 8 7 9 9 6 6 9 10 7 4 6 4 1 2
9 4 5 6 7 6 5 3 4 6 4 5 3 6 5 2 4 3 2 5 7 8 8 6 3 6 7 9 8 5 4 4 2
11 4 6 5 5 5 6 1 5 6 6 4 4 3 5 3 3 3 3 1 6 7 7 4 3 1 3 5 5 5 3 1 7
13 14 9 8 8 6 4 4 3 4 5 5 4 4 5 5 1 4 4 3 0 4 6 6 6 4 2 2 4 5 3 2 3
18 15 13 11 10 9 6 6 7 4 3 2 3 4 2 4 4 2 3 3 4 3 3 5 6 6 6 6 4 5 6 6 5
20 18 16 13 13 9 10 9 7 7 6 4 4 3 5 4 3 4 1 1 3 5 4 4 4 5 6 6 6 7 6 6 5
21 20 18 16 14 15 13 11 9 8 7 7 8 6 6 6 7 7 7 6 2 4 7 7 5 4 5 5 6 7 8 8 8
25 23 21 21 19 16 15 13 11 9 8 8 7 8 9 7 10 10 7 6 6 5 6 5 6 7 7 4 5 5 7 9 9
28 26 24 23 20 18 17 15 13 11 9 9 9 9 11 10 12 11 11 9 9 8 6 7 5 5 7 6 7 5 7 8 9
31 29 26 25 24 22 20 17 15 14 11 6 9 13 12 12 10 12 10 9 12 7 6 7 6 8 6 8 7 9 11 9 8
36 32 30 29 25 22 22 20 18 15 14 6 3 2 5 13 12 14 12 7 7 6 8 8 7 9 11 10 9 14 12 8 11
37 35 33 31 29 27 26 24 21 18 15 14 6 0 3 3 11 13 10 9 7 8 6 11 11 10 9 11 11 10 9 13 13
38 36 34 32 31 29 29 26 25 19 18 14 14 8 1 2 2 6 11 6 8 8 12 10 9 12 12 11 13 15 13 12 12
38 37 35 34 34 30 30 28 26 25 17 18 12 11 7 5 3 3 4 4 8 6 10 15 16 14 12 13 16 14 12 14 17
Wind_Direction
75 77 74 70 79 72 71 70 72 76 86 90 95 80 66 79 76 77 71 72 62 70 80 83 73 70 50 54 52 47 67 94 80
84 75 70 68 73 77 75 73 69 83 104 109 105 94 73 81 74 64 40 64 54 68 63 75 59 39 38 49 40 44 71 108 75
93 87 81 74 65 69 71 77 86 88 99 94 113 99 95 77 73 60 34 27 41 43 65 57 42 13 19 125 36 55 71 111 101
104 100 93 81 73 68 66 62 73 96 124 101 115 114 83 65 84 49 52 55 44 12 21 58 56 31 2 231 193 89 73 131 121
108 94 100 94 78 77 77 73 70 72 82 108 120 103 80 76 183 135 84 25 24 46 56 70 57 62 39 287 199 183 166 207 203
144 177 121 93 85 82 81 83 78 69 51 84 111 90 116 89 103 89 104 62 48 55 67 70 66 64 54 5 208 215 223 212 221
186 139 120 104 92 82 84 89 78 62 61 71 101 98 113 76 102 41 89 60 63 63 69 73 61 57 46 45 64 223 231 287 216
208 144 119 104 95 84 73 105 138 128 104 108 78 122 129 161 260 309 299 84 65 66 63 75 53 41 36 42 49 35 211 241 234
192 164 159 167 147 161 146 184 90 90 106 114 112 151 141 77 263 300 333 194 76 67 56 51 54 324 304 1 3 39 40 280 237
188 187 197 164 178 168 180 148 137 150 164 156 143 130 151 153 255 295 316 350 277 68 56 49 51 34 333 350 305 296 340 300 276
191 192 185 189 172 185 177 182 183 181 188 223 184 172 176 197 198 281 323 6 15 23 51 48 51 52 49 42 16 303 297 271 276
198 193 197 190 187 180 179 185 188 203 203 209 199 243 194 202 226 190 282 336 337 357 11 12 44 48 41 30 17 4 342 320 310
198 193 197 188 187 190 194 193 190 199 209 223 231 226 246 205 217 228 201 214 226 324 345 346 353 9 17 15 8 5 4 357 344
200 197 195 193 196 195 192 195 200 208 216 230 234 237 233 227 224 227 239 266 265 266 260 321 339 339 343 345 350 351 354 342 337
202 201 198 199 198 194 194 200 205 205 218 225 250 240 235 235 225 230 250 240 247 296 300 311 338 322 320 321 324 326 340 333 332
204 205 199 203 202 198 199 195 200 207 211 235 255 243 236 239 224 228 232 245 241 270 295 299 304 296 289 300 301 299 317 321 325
207 205 200 201 200 198 200 197 198 207 203 197 205 300 210 225 227 219 214 232 242 246 280 277 283 294 299 302 294 309 303 310 320
211 205 202 203 203 199 202 200 199 196 199 210 202 144 219 172 206 207 216 209 247 277 263 285 292 295 292 293 295 303 300 300 304
211 208 205 203 205 204 205 205 205 197 197 196 223 244 214 159 345 198 199 235 243 273 294 291 294 299 298 296 286 287 291 289 293
210 208 204 203 206 205 204 204 206 207 202 191 195 212 213 224 150 262 290 257 283 292 303 298 298 295 292 293 291 289 279 284 291